Time,TemperatureF,DewpointF,PressureIn,WindDirection,WindDirectionDegrees,WindSpeedMPH,WindSpeedGustMPH,Humidity,HourlyPrecipIn,Conditions,Clouds,dailyrainin,SoftwareType,DateUTC
2013-02-17 00:13:00,30.7,24.0,29.92,SE,135,1.7,-999.0,76,-99.99,,,0.00,Acu-Link.com,2013-02-17 06:13:00,
2013-02-17 00:28:00,30.0,23.4,29.93,SE,135,0.0,-999.0,76,-99.99,,,0.00,Acu-Link.com,2013-02-17 06:28:00,
2013-02-17 00:43:00,29.5,22.9,29.92,SE,135,0.0,-999.0,76,-99.99,,,0.00,Acu-Link.com,2013-02-17 06:43:00,
2013-02-17 00:58:00,29.3,22.7,29.92,ESE,112,0.0,-999.0,76,-99.99,,,0.00,Acu-Link.com,2013-02-17 06:58:00,
2013-02-17 01:13:00,28.9,22.6,29.91,SE,135,0.0,-999.0,77,-99.99,,,0.00,Acu-Link.com,2013-02-17 07:13:00,
2013-02-17 01:28:00,28.8,22.5,29.91,SSW,202,0.0,-999.0,77,-99.99,,,0.00,Acu-Link.com,2013-02-17 07:28:00,
2013-02-17 01:43:00,28.0,21.4,29.92,ESE,112,0.0,-999.0,76,-99.99,,,0.00,Acu-Link.com,2013-02-17 07:43:00,
2013-02-17 01:58:00,27.5,20.9,29.92,ESE,112,0.0,-999.0,76,-99.99,,,0.00,Acu-Link.com,2013-02-17 07:58:00,
2013-02-17 02:13:00,27.5,20.9,29.92,SSE,157,0.0,-999.0,76,-99.99,,,0.00,Acu-Link.com,2013-02-17 08:13:00,
2013-02-17 02:29:00,27.3,20.4,29.91,SE,135,0.0,-999.0,75,-99.99,,,0.00,Acu-Link.com,2013-02-17 08:29:00,
2013-02-17 02:44:00,27.3,20.4,29.91,SE,135,0.0,-999.0,75,-99.99,,,0.00,Acu-Link.com,2013-02-17 08:44:00,
2013-02-17 02:59:00,26.8,20.0,29.90,ESE,112,0.0,-999.0,75,-99.99,,,0.00,Acu-Link.com,2013-02-17 08:59:00,
2013-02-17 03:17:00,26.8,19.6,29.91,SE,135,0.0,-999.0,74,-99.99,,,0.00,Acu-Link.com,2013-02-17 09:17:00,
2013-02-17 03:32:00,27.1,18.3,29.91,ESE,112,0.0,-999.0,69,-99.99,,,0.00,Acu-Link.com,2013-02-17 09:32:00,
2013-02-17 03:47:00,27.7,18.9,29.90,SW,225,1.1,-999.0,69,-99.99,,,0.00,Acu-Link.com,2013-02-17 09:47:00,
2013-02-17 04:02:00,27.9,18.0,29.89,SSE,157,1.1,-999.0,66,-99.99,,,0.00,Acu-Link.com,2013-02-17 10:02:00,
2013-02-17 04:17:00,28.0,15.2,29.88,South,180,0.0,-999.0,58,-99.99,,,0.00,Acu-Link.com,2013-02-17 10:17:00,
2013-02-17 04:32:00,27.9,15.5,29.89,ESE,112,0.0,-999.0,59,-99.99,,,0.00,Acu-Link.com,2013-02-17 10:32:00,
2013-02-17 04:47:00,27.5,4.1,29.88,SE,135,0.0,-999.0,36,-99.99,,,0.00,Acu-Link.com,2013-02-17 10:47:00,
2013-02-17 05:02:00,27.5,-9.3,29.88,SSE,157,0.0,-999.0,19,-99.99,,,0.00,Acu-Link.com,2013-02-17 11:02:00,
2013-02-17 05:18:00,27.5,-26.0,29.88,SSE,157,1.1,-999.0,8,-99.99,,,0.00,Acu-Link.com,2013-02-17 11:18:00,
2013-02-17 05:33:00,28.0,-38.1,29.89,SSE,157,0.0,-999.0,4,-99.99,,,0.00,Acu-Link.com,2013-02-17 11:33:00,
2013-02-17 05:48:00,27.7,-25.9,29.88,SE,135,0.0,-999.0,8,-99.99,,,0.00,Acu-Link.com,2013-02-17 11:48:00,
2013-02-17 06:03:00,27.1,-61.1,29.88,ENE,67,0.0,-999.0,1,-99.99,,,0.00,Acu-Link.com,2013-02-17 12:03:00,
2013-02-17 06:18:00,26.8,-61.3,29.88,SE,135,0.0,-999.0,1,-99.99,,,0.00,Acu-Link.com,2013-02-17 12:18:00,
2013-02-17 06:33:00,26.6,-61.4,29.88,SSE,157,0.0,-999.0,1,-99.99,,,0.00,Acu-Link.com,2013-02-17 12:33:00,
2013-02-17 06:48:00,26.1,-61.8,29.87,East,90,0.0,-999.0,1,-99.99,,,0.00,Acu-Link.com,2013-02-17 12:48:00,
2013-02-17 07:03:00,26.1,-61.8,29.87,South,180,0.0,-999.0,1,-99.99,,,0.00,Acu-Link.com,2013-02-17 13:03:00,
2013-02-17 07:18:00,25.7,-62.0,29.87,SSE,157,0.0,-999.0,1,-99.99,,,0.00,Acu-Link.com,2013-02-17 13:18:00,
2013-02-17 07:34:00,25.7,-62.0,29.86,SE,135,0.0,-999.0,1,-99.99,,,0.00,Acu-Link.com,2013-02-17 13:34:00,
2013-02-17 07:49:00,28.6,-60.2,29.86,SE,135,0.0,-999.0,1,-99.99,,,0.00,Acu-Link.com,2013-02-17 13:49:00,
2013-02-17 08:04:00,30.9,-0.7,29.86,ESE,112,0.0,-999.0,25,-99.99,,,0.00,Acu-Link.com,2013-02-17 14:04:00,
2013-02-17 08:19:00,33.3,25.9,29.86,SE,135,3.2,-999.0,74,-99.99,,,0.00,Acu-Link.com,2013-02-17 14:19:00,
2013-02-17 08:34:00,35.4,28.9,29.86,SE,135,3.2,-999.0,77,-99.99,,,0.00,Acu-Link.com,2013-02-17 14:34:00,
2013-02-17 08:49:00,37.2,31.0,29.87,South,180,4.7,-999.0,78,-99.99,,,0.00,Acu-Link.com,2013-02-17 14:49:00,
2013-02-17 09:04:00,39.0,32.4,29.86,South,180,4.2,-999.0,77,-99.99,,,0.00,Acu-Link.com,2013-02-17 15:04:00,
2013-02-17 09:19:00,40.5,33.2,29.86,East,90,6.8,-999.0,75,-99.99,,,0.00,Acu-Link.com,2013-02-17 15:19:00,
2013-02-17 09:34:00,42.8,34.4,29.86,South,180,3.7,-999.0,72,-99.99,,,0.00,Acu-Link.com,2013-02-17 15:34:00,
2013-02-17 09:50:00,45.7,35.4,29.85,South,180,3.2,-999.0,67,-99.99,,,0.00,Acu-Link.com,2013-02-17 15:50:00,
2013-02-17 10:05:00,47.3,35.4,29.84,SE,135,5.3,-999.0,63,-99.99,,,0.00,Acu-Link.com,2013-02-17 16:05:00,
2013-02-17 10:20:00,49.8,36.5,29.84,South,180,4.7,-999.0,60,-99.99,,,0.00,Acu-Link.com,2013-02-17 16:20:00,
2013-02-17 10:35:00,50.7,35.6,29.83,ESE,112,8.3,-999.0,56,-99.99,,,0.00,Acu-Link.com,2013-02-17 16:35:00,
2013-02-17 10:50:00,52.7,37.0,29.84,ESE,112,7.8,-999.0,55,-99.99,,,0.00,Acu-Link.com,2013-02-17 16:50:00,
2013-02-17 11:05:00,54.3,37.1,29.83,SSW,202,5.8,-999.0,52,-99.99,,,0.00,Acu-Link.com,2013-02-17 17:05:00,
2013-02-17 11:20:00,55.4,37.6,29.82,ESE,112,6.8,-999.0,51,-99.99,,,0.00,Acu-Link.com,2013-02-17 17:20:00,
2013-02-17 11:35:00,57.0,38.0,29.81,WSW,247,4.7,-999.0,49,-99.99,,,0.00,Acu-Link.com,2013-02-17 17:35:00,
2013-02-17 11:50:00,58.3,37.6,29.80,East,90,7.3,-999.0,46,-99.99,,,0.00,Acu-Link.com,2013-02-17 17:50:00,
2013-02-17 12:06:00,59.0,37.7,29.79,WSW,247,8.9,-999.0,45,-99.99,,,0.00,Acu-Link.com,2013-02-17 18:06:00,
2013-02-17 12:21:00,59.9,37.9,29.78,SSW,202,6.3,-999.0,44,-99.99,,,0.00,Acu-Link.com,2013-02-17 18:21:00,
2013-02-17 12:36:00,61.0,37.7,29.76,SSE,157,5.3,-999.0,42,-99.99,,,0.00,Acu-Link.com,2013-02-17 18:36:00,
2013-02-17 12:51:00,62.4,38.4,29.75,East,90,7.3,-999.0,41,-99.99,,,0.00,Acu-Link.com,2013-02-17 18:51:00,
2013-02-17 13:06:00,64.4,37.6,29.74,ESE,112,4.2,-999.0,37,-99.99,,,0.00,Acu-Link.com,2013-02-17 19:06:00,
2013-02-17 13:21:00,65.3,36.9,29.72,SSW,202,4.7,-999.0,35,-99.99,,,0.00,Acu-Link.com,2013-02-17 19:21:00,
2013-02-17 13:36:00,66.4,37.2,29.71,ESE,112,4.7,-999.0,34,-99.99,,,0.00,Acu-Link.com,2013-02-17 19:36:00,
2013-02-17 13:51:00,66.2,36.2,29.70,SSE,157,7.3,-999.0,33,-99.99,,,0.00,Acu-Link.com,2013-02-17 19:51:00,
2013-02-17 14:06:00,67.6,36.7,29.68,SSE,157,10.4,-999.0,32,-99.99,,,0.00,Acu-Link.com,2013-02-17 20:06:00,
2013-02-17 14:22:00,68.2,36.4,29.67,NE,45,6.8,-999.0,31,-99.99,,,0.00,Acu-Link.com,2013-02-17 20:22:00,
2013-02-17 14:37:00,68.2,37.2,29.67,ESE,112,11.4,-999.0,32,-99.99,,,0.00,Acu-Link.com,2013-02-17 20:37:00,
2013-02-17 14:52:00,67.1,37.0,29.67,NNE,22,8.9,-999.0,33,-99.99,,,0.00,Acu-Link.com,2013-02-17 20:52:00,
2013-02-17 15:07:00,66.7,35.9,29.66,WSW,247,14.0,-999.0,32,-99.99,,,0.00,Acu-Link.com,2013-02-17 21:07:00,
2013-02-17 15:22:00,67.3,36.4,29.66,ESE,112,11.4,-999.0,32,-99.99,,,0.00,Acu-Link.com,2013-02-17 21:22:00,
2013-02-17 15:37:00,66.9,36.1,29.64,ESE,112,18.1,-999.0,32,-99.99,,,0.00,Acu-Link.com,2013-02-17 21:37:00,
2013-02-17 15:52:00,68.0,36.2,29.63,ESE,112,9.9,-999.0,31,-99.99,,,0.00,Acu-Link.com,2013-02-17 21:52:00,
2013-02-17 16:07:00,69.1,33.7,29.63,SSW,202,14.5,-999.0,27,-99.99,,,0.00,Acu-Link.com,2013-02-17 22:07:00,
2013-02-17 16:22:00,69.4,30.0,29.62,SSE,157,9.4,-999.0,23,-99.99,,,0.00,Acu-Link.com,2013-02-17 22:22:00,
2013-02-17 16:38:00,70.0,29.4,29.61,SSE,157,12.5,-999.0,22,-99.99,,,0.00,Acu-Link.com,2013-02-17 22:38:00,
2013-02-17 16:53:00,70.2,29.6,29.60,NNE,22,12.5,-999.0,22,-99.99,,,0.00,Acu-Link.com,2013-02-17 22:53:00,
2013-02-17 17:08:00,69.1,27.5,29.60,West,270,14.0,-999.0,21,-99.99,,,0.00,Acu-Link.com,2013-02-17 23:08:00,
2013-02-17 17:23:00,68.0,27.7,29.60,SSE,157,16.6,-999.0,22,-99.99,,,0.00,Acu-Link.com,2013-02-17 23:23:00,
2013-02-17 17:38:00,66.7,28.8,29.60,South,180,15.0,-999.0,24,-99.99,,,0.00,Acu-Link.com,2013-02-17 23:38:00,
2013-02-17 17:53:00,64.9,30.1,29.59,West,270,10.4,-999.0,27,-99.99,,,0.00,Acu-Link.com,2013-02-17 23:53:00,
2013-02-17 18:08:00,63.1,31.2,29.60,South,180,8.9,-999.0,30,-99.99,,,0.00,Acu-Link.com,2013-02-18 00:08:00,
2013-02-17 18:23:00,61.7,31.5,29.60,SE,135,7.3,-999.0,32,-99.99,,,0.00,Acu-Link.com,2013-02-18 00:23:00,
2013-02-17 18:39:00,61.0,32.4,29.59,South,180,7.8,-999.0,34,-99.99,,,0.00,Acu-Link.com,2013-02-18 00:39:00,
2013-02-17 18:54:00,60.3,32.5,29.59,SW,225,10.4,-999.0,35,-99.99,,,0.00,Acu-Link.com,2013-02-18 00:54:00,
2013-02-17 19:09:00,60.6,32.8,29.59,SW,225,9.9,-999.0,35,-99.99,,,0.00,Acu-Link.com,2013-02-18 01:09:00,
2013-02-17 19:24:00,59.7,32.7,29.59,NE,45,9.4,-999.0,36,-99.99,,,0.00,Acu-Link.com,2013-02-18 01:24:00,
2013-02-17 19:39:00,58.8,32.6,29.59,SE,135,11.4,-999.0,37,-99.99,,,0.00,Acu-Link.com,2013-02-18 01:39:00,
2013-02-17 19:54:00,58.5,33.0,29.58,SSW,202,6.8,-999.0,38,-99.99,,,0.00,Acu-Link.com,2013-02-18 01:54:00,
2013-02-17 20:09:00,57.9,32.5,29.58,South,180,5.8,-999.0,38,-99.99,,,0.00,Acu-Link.com,2013-02-18 02:09:00,
2013-02-17 20:24:00,57.2,32.5,29.58,SE,135,7.8,-999.0,39,-99.99,,,0.00,Acu-Link.com,2013-02-18 02:24:00,
2013-02-17 20:39:00,56.1,32.1,29.57,SE,135,6.8,-999.0,40,-99.99,,,0.00,Acu-Link.com,2013-02-18 02:39:00,
2013-02-17 20:55:00,55.6,32.9,29.57,South,180,8.9,-999.0,42,-99.99,,,0.00,Acu-Link.com,2013-02-18 02:55:00,
2013-02-17 21:10:00,55.2,33.1,29.56,SSW,202,8.3,-999.0,43,-99.99,,,0.00,Acu-Link.com,2013-02-18 03:10:00,
2013-02-17 21:25:00,54.0,33.1,29.56,NE,45,10.4,-999.0,45,-99.99,,,0.00,Acu-Link.com,2013-02-18 03:25:00,
2013-02-17 21:40:00,55.0,33.5,29.56,WNW,292,9.4,-999.0,44,-99.99,,,0.00,Acu-Link.com,2013-02-18 03:40:00,
2013-02-17 21:55:00,54.7,33.2,29.55,NE,45,7.8,-999.0,44,-99.99,,,0.00,Acu-Link.com,2013-02-18 03:55:00,
2013-02-17 22:10:00,54.1,33.2,29.55,SSE,157,7.8,-999.0,45,-99.99,,,0.00,Acu-Link.com,2013-02-18 04:10:00,
2013-02-17 22:25:00,54.1,33.8,29.55,ESE,112,9.9,-999.0,46,-99.99,,,0.00,Acu-Link.com,2013-02-18 04:25:00,
2013-02-17 22:40:00,54.0,34.2,29.54,ESE,112,9.4,-999.0,47,-99.99,,,0.00,Acu-Link.com,2013-02-18 04:40:00,
2013-02-17 22:55:00,54.1,34.3,29.53,SE,135,12.5,-999.0,47,-99.99,,,0.00,Acu-Link.com,2013-02-18 04:55:00,
2013-02-17 23:11:00,55.0,34.6,29.53,SE,135,10.4,-999.0,46,-99.99,,,0.00,Acu-Link.com,2013-02-18 05:11:00,
2013-02-17 23:26:00,55.0,34.6,29.52,SSW,202,12.5,-999.0,46,-99.99,,,0.00,Acu-Link.com,2013-02-18 05:26:00,
2013-02-17 23:41:00,54.5,34.1,29.51,SSE,157,12.5,-999.0,46,-99.99,,,0.00,Acu-Link.com,2013-02-18 05:41:00,
2013-02-17 23:56:00,54.5,34.1,29.50,SE,135,14.0,-999.0,46,-99.99,,,0.00,Acu-Link.com,2013-02-18 05:56:00,